DAL210 KLAX-CYVR

Flight info

Callsign DAL210
Flight time 2h 31m
Altitude 40000
Route SUMMR2 SCTRR DCT SNS J126 SAC DCT LMT J65 SEA DCT PAE GRIZZ9
Aircraft A359/H-SDE2E3GHIJ3J4J5LM1ORWXY/LB1D1

Departure

Time 2026-05-05 06:29
Airport Los Angeles International Airport (KLAX)

Arrival

Time 2026-05-05 09:01
Airport Vancouver International Airport (CYVR)
Time Latitude Longitude Altitude Speed Heading
2026-05-05 06:08 33.94395 -118.41131 102 ft 0 kts 85°
2026-05-05 06:20 33.94395 -118.41132 99 ft 2 kts 85°
2026-05-05 06:20 33.94393 -118.41162 99 ft 4 kts 83°
2026-05-05 06:21 33.94389 -118.41194 98 ft 4 kts 83°
2026-05-05 06:21 33.94386 -118.41221 100 ft 4 kts 56°
2026-05-05 06:21 33.94367 -118.41235 97 ft 4 kts 358°
2026-05-05 06:21 33.94343 -118.41232 98 ft 1 kts 353°
2026-05-05 06:22 33.94339 -118.41232 100 ft 0 kts 353°
2026-05-05 06:24 33.94372 -118.41237 102 ft 8 kts 353°
2026-05-05 06:25 33.94435 -118.41246 100 ft 6 kts 353°
2026-05-05 06:25 33.94485 -118.41253 101 ft 7 kts 353°
2026-05-05 06:25 33.94548 -118.41262 101 ft 11 kts 353°
2026-05-05 06:25 33.94640 -118.41273 101 ft 12 kts
2026-05-05 06:26 33.94709 -118.41190 102 ft 17 kts 65°
2026-05-05 06:26 33.94735 -118.41034 101 ft 21 kts 82°
2026-05-05 06:26 33.94755 -118.40849 99 ft 24 kts 83°
2026-05-05 06:26 33.94776 -118.40647 101 ft 21 kts 84°
2026-05-05 06:27 33.94792 -118.40482 100 ft 10 kts 83°
2026-05-05 06:27 33.94881 -118.40265 103 ft 18 kts 55°
2026-05-05 06:27 33.94916 -118.40103 102 ft 22 kts 79°
2026-05-05 06:28 33.94931 -118.39971 99 ft 0 kts 72°
2026-05-05 06:28 33.94946 -118.39945 100 ft 15 kts 50°
2026-05-05 06:28 33.95032 -118.39962 100 ft 15 kts 288°
2026-05-05 06:28 33.95035 -118.40001 103 ft 12 kts 270°
2026-05-05 06:29 33.94987 -118.40542 104 ft 118 kts 261°
2026-05-05 06:29 33.94851 -118.41881 362 ft 188 kts 264°
2026-05-05 06:29 33.94689 -118.43478 1506 ft 190 kts 263°
2026-05-05 06:29 33.94525 -118.45068 2396 ft 196 kts 263°
2026-05-05 06:30 33.94351 -118.46797 2843 ft 223 kts 263°
2026-05-05 06:30 33.94239 -118.48757 3280 ft 248 kts 268°
2026-05-05 06:30 33.94196 -118.50869 4124 ft 253 kts 268°
2026-05-05 06:30 33.94093 -118.53004 5038 ft 257 kts 263°
2026-05-05 06:31 33.93919 -118.55162 6013 ft 260 kts 263°
2026-05-05 06:31 33.93737 -118.57339 6990 ft 263 kts 263°
2026-05-05 06:31 33.93557 -118.59543 7987 ft 266 kts 263°
2026-05-05 06:31 33.93378 -118.61768 9016 ft 269 kts 263°
2026-05-05 06:32 33.93199 -118.64017 10031 ft 273 kts 263°
2026-05-05 06:32 33.93018 -118.66340 10689 ft 291 kts 263°
2026-05-05 06:32 33.92943 -118.67301 10828 ft 301 kts 264°
2026-05-05 06:32 33.92739 -118.69907 11233 ft 324 kts 264°
2026-05-05 06:33 33.92522 -118.72695 11717 ft 341 kts 264°
2026-05-05 06:33 33.92302 -118.75525 11956 ft 346 kts 264°
2026-05-05 06:33 33.92076 -118.78414 11999 ft 347 kts 264°
2026-05-05 06:33 33.91849 -118.81319 11996 ft 347 kts 264°
2026-05-05 06:34 33.91734 -118.84220 12008 ft 348 kts 270°
2026-05-05 06:34 33.91799 -118.87150 12341 ft 351 kts 271°
2026-05-05 06:34 33.91893 -118.90096 13278 ft 352 kts 271°
2026-05-05 06:34 33.91985 -118.93050 14260 ft 353 kts 271°
2026-05-05 06:35 33.92074 -118.96029 15101 ft 357 kts 271°
2026-05-05 06:35 33.92186 -118.99006 15866 ft 362 kts 273°
2026-05-05 06:35 33.92684 -119.01998 16660 ft 369 kts 287°
2026-05-05 06:35 33.93818 -119.04807 17470 ft 377 kts 298°
2026-05-05 06:36 33.95206 -119.07510 18259 ft 382 kts 299°
2026-05-05 06:36 33.96639 -119.10243 18989 ft 387 kts 299°
2026-05-05 06:36 33.98081 -119.13006 19750 ft 391 kts 298°
2026-05-05 06:36 33.99543 -119.15786 20511 ft 395 kts 300°
2026-05-05 06:37 34.01256 -119.18424 21246 ft 403 kts 309°
2026-05-05 06:37 34.03346 -119.20667 21992 ft 412 kts 319°
2026-05-05 06:37 34.05679 -119.22712 22724 ft 417 kts 321°
2026-05-05 06:37 34.08070 -119.24746 23436 ft 422 kts 321°
2026-05-05 06:38 34.10476 -119.26798 24117 ft 425 kts 321°
2026-05-05 06:38 34.12871 -119.28848 24728 ft 428 kts 321°
2026-05-05 06:38 34.15312 -119.30944 25305 ft 433 kts 321°
2026-05-05 06:38 34.17780 -119.33067 25901 ft 437 kts 320°
2026-05-05 06:39 34.20271 -119.35214 26499 ft 441 kts 320°
2026-05-05 06:39 34.22781 -119.37379 27086 ft 445 kts 321°
2026-05-05 06:39 34.25313 -119.39565 27672 ft 449 kts 321°
2026-05-05 06:39 34.26282 -119.40403 27890 ft 450 kts 321°
2026-05-05 06:40 34.28855 -119.42627 28459 ft 454 kts 320°
2026-05-05 06:40 34.31445 -119.44867 29004 ft 459 kts 320°
2026-05-05 06:40 34.34053 -119.47125 29538 ft 463 kts 320°
2026-05-05 06:40 34.36684 -119.49405 30044 ft 467 kts 320°
2026-05-05 06:41 34.39347 -119.51714 30458 ft 471 kts 320°
2026-05-05 06:41 34.42016 -119.54038 30854 ft 475 kts 320°
2026-05-05 06:41 34.44621 -119.56454 31263 ft 478 kts 319°
2026-05-05 06:41 34.47244 -119.58954 31646 ft 481 kts 319°
2026-05-05 06:42 34.49896 -119.61478 31992 ft 485 kts 319°
2026-05-05 06:42 34.51290 -119.62802 32158 ft 488 kts 319°
2026-05-05 06:42 34.51630 -119.63124 32194 ft 488 kts 319°
2026-05-05 06:42 34.54081 -119.65447 32514 ft 492 kts 319°
2026-05-05 06:43 34.55481 -119.66774 32699 ft 493 kts 319°
2026-05-05 06:43 34.59100 -119.70198 33108 ft 498 kts 319°
2026-05-05 06:43 34.61846 -119.72796 33445 ft 501 kts 319°
2026-05-05 06:44 34.64587 -119.75389 33904 ft 501 kts 318°
2026-05-05 06:44 34.67354 -119.78009 34299 ft 500 kts 318°
2026-05-05 06:44 34.70104 -119.80617 34652 ft 500 kts 318°
2026-05-05 06:44 34.72818 -119.83193 35070 ft 499 kts 318°
2026-05-05 06:45 34.75546 -119.85785 35501 ft 498 kts 319°
2026-05-05 06:45 34.78281 -119.88385 35851 ft 498 kts 319°
2026-05-05 06:45 34.81020 -119.90991 36168 ft 498 kts 318°
2026-05-05 06:45 34.83757 -119.93598 36503 ft 498 kts 318°
2026-05-05 06:46 34.86449 -119.96163 36854 ft 498 kts 318°
2026-05-05 06:46 34.89175 -119.98764 37190 ft 497 kts 318°
2026-05-05 06:46 34.91905 -120.01371 37519 ft 497 kts 318°
2026-05-05 06:46 34.94635 -120.03980 37846 ft 497 kts 318°
2026-05-05 06:47 34.97356 -120.06582 38123 ft 497 kts 318°
2026-05-05 06:47 35.00042 -120.09153 38441 ft 497 kts 318°
2026-05-05 06:47 35.02758 -120.11755 38754 ft 496 kts 318°
2026-05-05 06:47 35.05478 -120.14363 39023 ft 495 kts 318°
2026-05-05 06:48 35.08192 -120.16968 39285 ft 494 kts 318°
2026-05-05 06:48 35.10896 -120.19566 39518 ft 493 kts 318°
2026-05-05 06:48 35.13593 -120.22159 39714 ft 493 kts 318°
2026-05-05 06:48 35.16258 -120.24722 39916 ft 493 kts 318°
2026-05-05 06:49 35.18963 -120.27312 40044 ft 495 kts 319°
2026-05-05 06:49 35.24489 -120.32335 40073 ft 494 kts 320°
2026-05-05 06:50 35.30009 -120.37357 40070 ft 494 kts 320°
2026-05-05 06:50 35.35497 -120.42382 40069 ft 494 kts 320°
2026-05-05 06:51 35.40992 -120.47426 40068 ft 493 kts 320°
2026-05-05 06:51 35.46483 -120.52478 40078 ft 493 kts 320°
2026-05-05 06:52 35.51975 -120.57542 40081 ft 494 kts 320°
2026-05-05 06:52 35.56573 -120.61736 40081 ft 494 kts 321°
2026-05-05 06:53 35.63095 -120.67453 40090 ft 494 kts 322°
2026-05-05 06:53 35.67763 -120.71542 40082 ft 495 kts 322°
2026-05-05 06:54 35.73366 -120.76490 40077 ft 495 kts 322°
2026-05-05 06:54 35.78948 -120.81447 40078 ft 495 kts 322°
2026-05-05 06:55 35.84502 -120.86394 40080 ft 495 kts 322°
2026-05-05 06:55 35.90097 -120.91384 40072 ft 495 kts 322°
2026-05-05 06:56 35.95684 -120.96374 40081 ft 495 kts 322°
2026-05-05 06:56 36.01261 -121.01365 40076 ft 495 kts 323°
2026-05-05 06:57 36.06807 -121.06336 40073 ft 495 kts 323°
2026-05-05 06:57 36.12389 -121.11348 40080 ft 495 kts 322°
2026-05-05 06:58 36.17920 -121.16325 40081 ft 495 kts 323°
2026-05-05 06:58 36.23511 -121.21363 40089 ft 494 kts 323°
2026-05-05 06:59 36.29072 -121.26383 40089 ft 494 kts 323°
2026-05-05 06:59 36.34600 -121.31383 40097 ft 494 kts 323°
2026-05-05 07:00 36.40159 -121.36419 40097 ft 494 kts 323°
2026-05-05 07:00 36.45714 -121.41463 40108 ft 494 kts 323°
2026-05-05 07:01 36.51224 -121.46474 40104 ft 493 kts 323°
2026-05-05 07:01 36.56758 -121.51515 40076 ft 492 kts 323°
2026-05-05 07:02 36.62344 -121.56382 40065 ft 491 kts 329°
2026-05-05 07:02 36.68683 -121.59496 40064 ft 491 kts 348°
2026-05-05 07:03 36.75489 -121.60137 40063 ft 491 kts 360°
2026-05-05 07:03 36.82345 -121.59975 40071 ft 492 kts
2026-05-05 07:04 36.89154 -121.59715 40066 ft 491 kts
2026-05-05 07:04 36.95988 -121.59483 40065 ft 490 kts
2026-05-05 07:05 37.02780 -121.59282 40062 ft 490 kts
2026-05-05 07:05 37.09609 -121.59089 40061 ft 489 kts
2026-05-05 07:06 37.16410 -121.58897 40060 ft 487 kts
2026-05-05 07:06 37.23151 -121.58704 40056 ft 487 kts
2026-05-05 07:07 37.29953 -121.58509 40052 ft 486 kts
2026-05-05 07:07 37.36664 -121.58316 40054 ft 484 kts
2026-05-05 07:08 37.43407 -121.58121 40052 ft 483 kts
2026-05-05 07:08 37.50134 -121.57926 40052 ft 483 kts
2026-05-05 07:09 37.56859 -121.57732 40054 ft 481 kts
2026-05-05 07:09 37.63525 -121.57539 40054 ft 481 kts
2026-05-05 07:10 37.70232 -121.57344 40051 ft 481 kts
2026-05-05 07:10 37.76913 -121.57150 40053 ft 479 kts
2026-05-05 07:11 37.83536 -121.56956 40050 ft 478 kts
2026-05-05 07:11 37.90213 -121.56761 40043 ft 478 kts
2026-05-05 07:12 37.96828 -121.56568 40047 ft 477 kts
2026-05-05 07:12 38.03480 -121.56373 40045 ft 477 kts
2026-05-05 07:13 38.10080 -121.56179 40037 ft 477 kts
2026-05-05 07:13 38.16712 -121.55984 40048 ft 474 kts
2026-05-05 07:14 38.23281 -121.55791 40048 ft 474 kts
2026-05-05 07:14 38.29885 -121.55596 40047 ft 473 kts
2026-05-05 07:15 38.36489 -121.55400 40045 ft 473 kts
2026-05-05 07:15 38.43084 -121.55205 40044 ft 473 kts
2026-05-05 07:16 38.49648 -121.55203 40043 ft 474 kts
2026-05-05 07:16 38.56243 -121.55583 40046 ft 474 kts 359°
2026-05-05 07:17 38.62838 -121.55972 40045 ft 473 kts 360°
2026-05-05 07:17 38.69381 -121.56298 40033 ft 473 kts
2026-05-05 07:18 38.75968 -121.56597 40047 ft 472 kts
2026-05-05 07:18 38.82530 -121.56891 40045 ft 472 kts
2026-05-05 07:19 38.89109 -121.57187 40032 ft 472 kts
2026-05-05 07:19 38.95625 -121.57483 40048 ft 470 kts
2026-05-05 07:20 39.02177 -121.57783 40048 ft 470 kts
2026-05-05 07:20 39.08732 -121.58082 40040 ft 470 kts
2026-05-05 07:21 39.15222 -121.58380 40045 ft 468 kts
2026-05-05 07:21 39.21728 -121.58678 40045 ft 467 kts
2026-05-05 07:22 39.28234 -121.58977 40042 ft 467 kts
2026-05-05 07:22 39.34660 -121.59274 40035 ft 462 kts
2026-05-05 07:23 39.41082 -121.59571 40038 ft 460 kts
2026-05-05 07:23 39.47490 -121.59866 40025 ft 460 kts
2026-05-05 07:24 39.53843 -121.60159 40035 ft 459 kts
2026-05-05 07:24 39.60223 -121.60455 40037 ft 458 kts
2026-05-05 07:25 39.66612 -121.60752 40020 ft 458 kts
2026-05-05 07:25 39.72945 -121.61049 40037 ft 456 kts
2026-05-05 07:26 39.79294 -121.61343 40035 ft 456 kts
2026-05-05 07:26 39.85616 -121.61637 40016 ft 456 kts
2026-05-05 07:27 39.91964 -121.61933 40026 ft 455 kts
2026-05-05 07:27 39.98296 -121.62230 40018 ft 455 kts
2026-05-05 07:28 40.04598 -121.62527 40001 ft 455 kts
2026-05-05 07:28 40.10935 -121.62827 40014 ft 455 kts
2026-05-05 07:29 40.17276 -121.63126 40003 ft 455 kts
2026-05-05 07:29 40.23611 -121.63424 40010 ft 455 kts
2026-05-05 07:30 40.29903 -121.63722 40010 ft 455 kts
2026-05-05 07:30 40.39406 -121.64173 40008 ft 455 kts
2026-05-05 07:31 40.45715 -121.64473 39987 ft 456 kts
2026-05-05 07:31 40.52066 -121.64775 39993 ft 456 kts
2026-05-05 07:32 40.58423 -121.65076 39982 ft 457 kts
2026-05-05 07:32 40.64735 -121.65378 39994 ft 456 kts
2026-05-05 07:33 40.71080 -121.65684 39985 ft 456 kts
2026-05-05 07:33 40.77425 -121.65989 39986 ft 456 kts
2026-05-05 07:34 40.83729 -121.66293 39977 ft 454 kts
2026-05-05 07:34 40.90046 -121.66598 39986 ft 453 kts
2026-05-05 07:35 40.96375 -121.66902 39980 ft 454 kts
2026-05-05 07:35 41.02647 -121.67205 39986 ft 453 kts
2026-05-05 07:36 41.08954 -121.67511 39977 ft 452 kts
2026-05-05 07:36 41.15257 -121.67817 39980 ft 452 kts
2026-05-05 07:37 41.21512 -121.68122 39975 ft 452 kts
2026-05-05 07:37 41.27818 -121.68428 39970 ft 452 kts
2026-05-05 07:38 41.34120 -121.68736 39977 ft 452 kts
2026-05-05 07:38 41.40381 -121.69042 39970 ft 451 kts
2026-05-05 07:39 41.45602 -121.69299 39975 ft 451 kts
2026-05-05 07:39 41.52912 -121.69657 39947 ft 451 kts
2026-05-05 07:40 41.58144 -121.69914 39939 ft 451 kts
2026-05-05 07:40 41.64419 -121.70224 39921 ft 450 kts
2026-05-05 07:41 41.70647 -121.70532 39919 ft 450 kts
2026-05-05 07:41 41.76918 -121.70842 39898 ft 449 kts
2026-05-05 07:42 41.83125 -121.71151 39910 ft 448 kts
2026-05-05 07:42 41.89366 -121.71460 39911 ft 448 kts
2026-05-05 07:43 41.95604 -121.71770 39927 ft 448 kts
2026-05-05 07:43 42.01807 -121.72079 39945 ft 447 kts
2026-05-05 07:44 42.08024 -121.72390 39963 ft 447 kts
2026-05-05 07:44 42.14249 -121.72702 39962 ft 447 kts
2026-05-05 07:45 42.20479 -121.73143 39875 ft 448 kts
2026-05-05 07:45 42.26655 -121.73822 39864 ft 448 kts
2026-05-05 07:46 42.32868 -121.74512 39861 ft 447 kts
2026-05-05 07:46 42.39074 -121.75161 39856 ft 445 kts
2026-05-05 07:47 42.45262 -121.75788 39859 ft 445 kts
2026-05-05 07:47 42.51409 -121.76410 39866 ft 445 kts
2026-05-05 07:48 42.57588 -121.77039 39873 ft 444 kts
2026-05-05 07:48 42.63750 -121.77669 39870 ft 442 kts
2026-05-05 07:49 42.69847 -121.78293 39878 ft 442 kts
2026-05-05 07:49 42.75992 -121.78922 39873 ft 442 kts
2026-05-05 07:50 42.82087 -121.79548 39886 ft 442 kts
2026-05-05 07:50 42.88226 -121.80180 39879 ft 442 kts
2026-05-05 07:51 42.94363 -121.80813 39882 ft 442 kts
2026-05-05 07:51 43.00496 -121.81447 39888 ft 441 kts
2026-05-05 07:52 43.06589 -121.82078 39897 ft 441 kts
2026-05-05 07:52 43.12721 -121.82714 39900 ft 441 kts
2026-05-05 07:53 43.18806 -121.83347 39900 ft 441 kts
2026-05-05 07:53 43.24934 -121.83985 39920 ft 441 kts
2026-05-05 07:54 43.31067 -121.84626 39915 ft 441 kts
2026-05-05 07:54 43.37172 -121.85265 39918 ft 440 kts
2026-05-05 07:55 43.43245 -121.85900 39933 ft 440 kts
2026-05-05 07:55 43.49358 -121.86542 39938 ft 440 kts
2026-05-05 07:56 43.55475 -121.87186 39943 ft 440 kts
2026-05-05 07:56 43.61543 -121.87826 39934 ft 440 kts
2026-05-05 07:57 43.67664 -121.88473 39958 ft 440 kts
2026-05-05 07:57 43.73723 -121.89115 39962 ft 439 kts
2026-05-05 07:58 43.79825 -121.89762 39947 ft 439 kts
2026-05-05 07:58 43.85930 -121.90411 39953 ft 438 kts
2026-05-05 07:59 43.92018 -121.91060 39954 ft 438 kts
2026-05-05 07:59 43.98065 -121.91705 39954 ft 438 kts 360°
2026-05-05 08:00 44.04171 -121.92358 39964 ft 439 kts 360°
2026-05-05 08:00 44.10225 -121.93007 39960 ft 438 kts 360°
2026-05-05 08:01 44.16304 -121.93661 39968 ft 437 kts 360°
2026-05-05 08:01 44.22369 -121.94312 39959 ft 436 kts 360°
2026-05-05 08:02 44.28400 -121.94962 39957 ft 437 kts 360°
2026-05-05 08:02 44.34470 -121.95619 39958 ft 437 kts 360°
2026-05-05 08:03 44.40505 -121.96272 39943 ft 437 kts 359°
2026-05-05 08:03 44.46587 -121.96931 39950 ft 437 kts 359°
2026-05-05 08:04 44.52649 -121.97592 39946 ft 436 kts 359°
2026-05-05 08:04 44.58677 -121.98249 39958 ft 436 kts 359°
2026-05-05 08:05 44.64713 -121.98907 39963 ft 436 kts 359°
2026-05-05 08:05 44.70776 -121.99571 39947 ft 435 kts 359°
2026-05-05 08:06 44.76783 -122.00230 39962 ft 436 kts 359°
2026-05-05 08:06 44.82844 -122.00896 39945 ft 436 kts 359°
2026-05-05 08:07 44.88895 -122.01561 39948 ft 435 kts 359°
2026-05-05 08:07 44.94916 -122.02227 39954 ft 435 kts 359°
2026-05-05 08:08 45.00968 -122.02896 39961 ft 435 kts 359°
2026-05-05 08:08 45.06980 -122.03561 39960 ft 435 kts 358°
2026-05-05 08:09 45.13025 -122.04233 39959 ft 435 kts 358°
2026-05-05 08:09 45.19085 -122.04908 39966 ft 436 kts 358°
2026-05-05 08:10 45.25102 -122.05580 39962 ft 436 kts 358°
2026-05-05 08:10 45.31173 -122.06259 39958 ft 436 kts 358°
2026-05-05 08:11 45.37239 -122.06938 39973 ft 436 kts 358°
2026-05-05 08:11 45.43258 -122.07613 39985 ft 436 kts 358°
2026-05-05 08:12 45.49319 -122.08295 39972 ft 436 kts 358°
2026-05-05 08:12 45.55389 -122.08980 39987 ft 437 kts 358°
2026-05-05 08:13 45.61469 -122.09667 39990 ft 437 kts 358°
2026-05-05 08:13 45.67490 -122.10349 39985 ft 435 kts 358°
2026-05-05 08:14 45.73522 -122.11033 39960 ft 434 kts 358°
2026-05-05 08:14 45.79558 -122.11719 39968 ft 434 kts 358°
2026-05-05 08:15 45.85550 -122.12401 39961 ft 434 kts 358°
2026-05-05 08:15 45.89707 -122.12877 39969 ft 434 kts 358°
2026-05-05 08:16 45.95741 -122.13565 39965 ft 435 kts 358°
2026-05-05 08:16 46.01791 -122.14279 39975 ft 436 kts 358°
2026-05-05 08:17 46.07783 -122.14962 39964 ft 434 kts 358°
2026-05-05 08:17 46.13812 -122.15647 39969 ft 433 kts 358°
2026-05-05 08:18 46.19809 -122.16334 39963 ft 434 kts 357°
2026-05-05 08:18 46.25862 -122.17038 39958 ft 435 kts 357°
2026-05-05 08:19 46.31905 -122.17736 39952 ft 436 kts 357°
2026-05-05 08:19 46.37919 -122.18433 39967 ft 435 kts 357°
2026-05-05 08:20 46.43968 -122.19138 39984 ft 435 kts 357°
2026-05-05 08:20 46.50001 -122.19841 39961 ft 433 kts 357°
2026-05-05 08:21 46.55977 -122.20540 39969 ft 433 kts 357°
2026-05-05 08:21 46.61979 -122.21243 39955 ft 433 kts 357°
2026-05-05 08:22 46.68005 -122.21950 39956 ft 434 kts 357°
2026-05-05 08:22 46.74032 -122.22661 39978 ft 434 kts 357°
2026-05-05 08:23 46.80024 -122.23368 39966 ft 434 kts 357°
2026-05-05 08:23 46.86054 -122.24081 39999 ft 434 kts 356°
2026-05-05 08:24 46.92051 -122.24791 40003 ft 433 kts 356°
2026-05-05 08:24 46.98063 -122.25505 40004 ft 433 kts 356°
2026-05-05 08:25 47.04074 -122.26221 40014 ft 433 kts 356°
2026-05-05 08:25 47.10080 -122.26938 40006 ft 433 kts 356°
2026-05-05 08:26 47.16055 -122.27652 39980 ft 433 kts 356°
2026-05-05 08:26 47.21054 -122.28252 39982 ft 433 kts 356°
2026-05-05 08:27 47.28063 -122.29094 40012 ft 433 kts 356°
2026-05-05 08:27 47.33074 -122.29697 39988 ft 433 kts 356°
2026-05-05 08:28 47.37254 -122.30201 39996 ft 433 kts 356°
2026-05-05 08:28 47.43223 -122.30827 39877 ft 431 kts 360°
2026-05-05 08:29 47.46218 -122.30737 39632 ft 431 kts
2026-05-05 08:29 47.49229 -122.30567 39395 ft 431 kts
2026-05-05 08:29 47.52232 -122.30383 39164 ft 431 kts
2026-05-05 08:30 47.58235 -122.30000 38666 ft 431 kts
2026-05-05 08:30 47.61206 -122.29808 38395 ft 431 kts
2026-05-05 08:30 47.64201 -122.29612 38114 ft 432 kts
2026-05-05 08:30 47.67222 -122.29415 37846 ft 433 kts
2026-05-05 08:31 47.70241 -122.29217 37578 ft 433 kts
2026-05-05 08:31 47.73261 -122.29018 37298 ft 434 kts
2026-05-05 08:31 47.76245 -122.28822 37031 ft 434 kts
2026-05-05 08:31 47.79270 -122.28623 36770 ft 436 kts
2026-05-05 08:32 47.82310 -122.28422 36519 ft 437 kts
2026-05-05 08:32 47.85365 -122.28220 36254 ft 438 kts
2026-05-05 08:32 47.88414 -122.28019 35997 ft 439 kts
2026-05-05 08:32 47.91446 -122.27930 35757 ft 440 kts 358°
2026-05-05 08:33 47.94483 -122.28485 35393 ft 439 kts 351°
2026-05-05 08:33 47.97494 -122.29322 34575 ft 441 kts 350°
2026-05-05 08:33 48.00530 -122.30211 33572 ft 446 kts 349°
2026-05-05 08:33 48.03593 -122.31109 32525 ft 450 kts 349°
2026-05-05 08:34 48.06675 -122.32009 31493 ft 453 kts 349°
2026-05-05 08:34 48.08729 -122.32607 30790 ft 455 kts 349°
2026-05-05 08:34 48.10904 -122.33240 30054 ft 458 kts 349°
2026-05-05 08:34 48.14045 -122.34154 28856 ft 461 kts 349°
2026-05-05 08:35 48.17188 -122.35070 27911 ft 459 kts 350°
2026-05-05 08:35 48.20309 -122.35980 27073 ft 455 kts 350°
2026-05-05 08:35 48.23405 -122.36883 26235 ft 451 kts 350°
2026-05-05 08:35 48.26490 -122.37784 25398 ft 448 kts 350°
2026-05-05 08:36 48.29550 -122.38678 24567 ft 445 kts 350°
2026-05-05 08:36 48.32577 -122.39564 23774 ft 443 kts 350°
2026-05-05 08:36 48.35568 -122.40439 22929 ft 439 kts 350°
2026-05-05 08:36 48.38557 -122.41316 22064 ft 434 kts 350°
2026-05-05 08:37 48.41513 -122.42183 21223 ft 430 kts 350°
2026-05-05 08:37 48.44404 -122.43033 20428 ft 425 kts 350°
2026-05-05 08:37 48.47287 -122.43881 19634 ft 421 kts 350°
2026-05-05 08:37 48.50153 -122.44725 18847 ft 416 kts 350°
2026-05-05 08:38 48.52984 -122.45561 18014 ft 413 kts 350°
2026-05-05 08:38 48.55790 -122.46395 17122 ft 409 kts 349°
2026-05-05 08:38 48.58572 -122.47218 16254 ft 406 kts 350°
2026-05-05 08:38 48.61336 -122.48032 15431 ft 402 kts 349°
2026-05-05 08:39 48.64072 -122.48841 14633 ft 398 kts 349°
2026-05-05 08:39 48.66782 -122.49644 13820 ft 395 kts 349°
2026-05-05 08:39 48.69448 -122.50557 12896 ft 393 kts 343°
2026-05-05 08:39 48.71866 -122.52347 11973 ft 394 kts 325°
2026-05-05 08:40 48.73855 -122.55122 11575 ft 381 kts 315°
2026-05-05 08:40 48.75675 -122.58002 11497 ft 378 kts 315°
2026-05-05 08:40 48.77497 -122.60895 11368 ft 379 kts 315°
2026-05-05 08:40 48.79321 -122.63787 11224 ft 379 kts 315°
2026-05-05 08:41 48.81147 -122.66682 11080 ft 379 kts 315°
2026-05-05 08:41 48.82967 -122.69568 10938 ft 378 kts 315°
2026-05-05 08:41 48.84764 -122.72419 10797 ft 378 kts 315°
2026-05-05 08:41 48.86581 -122.75306 10653 ft 377 kts 315°
2026-05-05 08:42 48.88392 -122.78186 10507 ft 372 kts 314°
2026-05-05 08:42 48.90129 -122.80952 10393 ft 352 kts 314°
2026-05-05 08:42 48.91775 -122.83577 10259 ft 333 kts 314°
2026-05-05 08:42 48.93336 -122.86068 10136 ft 316 kts 314°
2026-05-05 08:43 48.94815 -122.88430 10007 ft 301 kts 314°
2026-05-05 08:43 48.96205 -122.90652 9912 ft 286 kts 314°
2026-05-05 08:43 48.97541 -122.92793 9764 ft 273 kts 314°
2026-05-05 08:43 48.98838 -122.94870 9443 ft 269 kts 314°
2026-05-05 08:44 49.00124 -122.96928 9074 ft 266 kts 314°
2026-05-05 08:44 49.01389 -122.98953 8778 ft 262 kts 314°
2026-05-05 08:44 49.02633 -123.00949 8579 ft 255 kts 314°
2026-05-05 08:44 49.03837 -123.02881 8356 ft 249 kts 314°
2026-05-05 08:45 49.05024 -123.04815 8103 ft 248 kts 312°
2026-05-05 08:45 49.05962 -123.06987 7817 ft 249 kts 297°
2026-05-05 08:45 49.06684 -123.09372 7525 ft 246 kts 295°
2026-05-05 08:45 49.07371 -123.11767 7271 ft 246 kts 295°
2026-05-05 08:46 49.08060 -123.14159 7026 ft 245 kts 295°
2026-05-05 08:46 49.08750 -123.16543 6819 ft 244 kts 295°
2026-05-05 08:46 49.09402 -123.18903 6575 ft 245 kts 291°
2026-05-05 08:46 49.09806 -123.21412 6375 ft 241 kts 282°
2026-05-05 08:47 49.10089 -123.23894 6199 ft 234 kts 281°
2026-05-05 08:47 49.10357 -123.26324 5975 ft 232 kts 282°
2026-05-05 08:47 49.10628 -123.28746 5753 ft 231 kts 281°
2026-05-05 08:47 49.10898 -123.31161 5555 ft 231 kts 281°
2026-05-05 08:48 49.11170 -123.33576 5377 ft 230 kts 281°
2026-05-05 08:48 49.11440 -123.35980 5213 ft 230 kts 281°
2026-05-05 08:48 49.11705 -123.38353 5038 ft 229 kts 281°
2026-05-05 08:48 49.11971 -123.40749 4869 ft 228 kts 281°
2026-05-05 08:49 49.12240 -123.43135 4693 ft 227 kts 282°
2026-05-05 08:49 49.12512 -123.45506 4522 ft 227 kts 282°
2026-05-05 08:49 49.12789 -123.47897 4345 ft 228 kts 282°
2026-05-05 08:49 49.13053 -123.50275 4178 ft 227 kts 279°
2026-05-05 08:50 49.13300 -123.52631 4009 ft 226 kts 280°
2026-05-05 08:50 49.13552 -123.55001 3883 ft 226 kts 279°
2026-05-05 08:50 49.13768 -123.57384 3787 ft 226 kts 278°
2026-05-05 08:50 49.13973 -123.59736 3711 ft 226 kts 278°
2026-05-05 08:51 49.14185 -123.62115 3580 ft 225 kts 278°
2026-05-05 08:51 49.14398 -123.64487 3469 ft 225 kts 278°
2026-05-05 08:51 49.14611 -123.66863 3343 ft 225 kts 278°
2026-05-05 08:51 49.14826 -123.69236 3220 ft 225 kts 278°
2026-05-05 08:52 49.15041 -123.71614 3100 ft 225 kts 278°
2026-05-05 08:52 49.15253 -123.73972 2983 ft 222 kts 278°
2026-05-05 08:52 49.15463 -123.76311 2875 ft 222 kts 278°
2026-05-05 08:52 49.15671 -123.78620 2851 ft 222 kts 278°
2026-05-05 08:53 49.16057 -123.80936 2850 ft 237 kts 294°
2026-05-05 08:53 49.17083 -123.83033 2832 ft 257 kts 323°
2026-05-05 08:53 49.18758 -123.83958 2845 ft 260 kts 358°
2026-05-05 08:53 49.20481 -123.83242 2846 ft 261 kts 33°
2026-05-05 08:54 49.21630 -123.81140 2851 ft 262 kts 67°
2026-05-05 08:54 49.22059 -123.78433 2843 ft 261 kts 75°
2026-05-05 08:54 49.22625 -123.75765 2850 ft 272 kts 72°
2026-05-05 08:54 49.23195 -123.72807 2833 ft 304 kts 75°
2026-05-05 08:55 49.23670 -123.69637 2836 ft 313 kts 79°
2026-05-05 08:55 49.24034 -123.66336 2844 ft 314 kts 82°
2026-05-05 08:55 49.24266 -123.63016 2847 ft 314 kts 86°
2026-05-05 08:55 49.24343 -123.59681 2853 ft 313 kts 90°
2026-05-05 08:56 49.24238 -123.56341 2847 ft 313 kts 92°
2026-05-05 08:56 49.24253 -123.53068 2851 ft 302 kts 93°
2026-05-05 08:56 49.23981 -123.50011 2865 ft 278 kts 101°
2026-05-05 08:56 49.23599 -123.47222 2863 ft 257 kts 101°
2026-05-05 08:57 49.23280 -123.44629 2866 ft 238 kts 100°
2026-05-05 08:57 49.23011 -123.42255 2840 ft 219 kts 99°
2026-05-05 08:57 49.22778 -123.40042 2639 ft 202 kts 98°
2026-05-05 08:57 49.22555 -123.38000 2378 ft 187 kts 99°
2026-05-05 08:58 49.22337 -123.36123 2103 ft 171 kts 99°
2026-05-05 08:58 49.22142 -123.34406 1870 ft 157 kts 99°
2026-05-05 08:58 49.21963 -123.32823 1674 ft 144 kts 99°
2026-05-05 08:58 49.21796 -123.31356 1497 ft 139 kts 99°
2026-05-05 08:59 49.21634 -123.29919 1307 ft 139 kts 99°
2026-05-05 08:59 49.21470 -123.28465 1121 ft 138 kts 100°
2026-05-05 08:59 49.21304 -123.27012 935 ft 139 kts 100°
2026-05-05 08:59 49.21137 -123.25543 752 ft 141 kts 100°
2026-05-05 09:00 49.20971 -123.24078 578 ft 141 kts 99°
2026-05-05 09:00 49.20802 -123.22600 394 ft 140 kts 99°
2026-05-05 09:00 49.20629 -123.21135 183 ft 141 kts 99°
2026-05-05 09:00 49.20459 -123.19677 51 ft 137 kts 99°
2026-05-05 09:01 49.20310 -123.18314 31 ft 116 kts 99°
2026-05-05 09:01 49.20228 -123.17591 28 ft 33 kts 99°
2026-05-05 09:01 49.20190 -123.17249 29 ft 32 kts 99°
2026-05-05 09:01 49.20127 -123.16943 31 ft 30 kts 126°
2026-05-05 09:02 49.20013 -123.16730 28 ft 6 kts 130°
2026-05-05 09:02 49.20013 -123.16729 28 ft 0 kts 130°
2026-05-05 09:02 49.20005 -123.16714 28 ft 5 kts 130°
2026-05-05 09:02 49.19957 -123.16628 29 ft 12 kts 135°
2026-05-05 09:03 49.19927 -123.16646 29 ft 8 kts 238°
2026-05-05 09:03 49.19926 -123.16783 29 ft 21 kts 278°
2026-05-05 09:03 49.19952 -123.17026 29 ft 25 kts 279°
2026-05-05 09:03 49.19983 -123.17295 29 ft 27 kts 280°
2026-05-05 09:04 49.20017 -123.17586 29 ft 29 kts 280°
2026-05-05 09:04 49.20052 -123.17895 29 ft 31 kts 280°
2026-05-05 09:04 49.20091 -123.18231 29 ft 33 kts 280°
2026-05-05 09:04 49.20103 -123.18469 29 ft 18 kts 245°
2026-05-05 09:05 49.20052 -123.18468 29 ft 7 kts 123°
2026-05-05 09:05 49.20032 -123.18370 29 ft 12 kts 104°
2026-05-05 09:05 49.20001 -123.18276 29 ft 7 kts 153°
2026-05-05 09:05 49.19956 -123.18281 29 ft 2 kts 191°
2026-05-05 09:06 49.19955 -123.18281 29 ft 0 kts 191°